Retour au catalogue

DELTA 1 DEB

ActifUNKNOWN
NORAD 10751·DEBRIS·🇺🇸 United States

Lancé Jul 29, 1976 depuis Vandenberg Space Force Base

Loading…

Prochains Passages (prochaines 24 heures)

TLE

FraisSource: Space-Track

Époque: Sep 14, 2026, 08:53 UTC

1 10751U 76077AY  26257.37052043  .00001061  00000-0  15277-1 0  9998
2 10751 102.0911 222.5027 0580181 233.9175 289.2209 11.56025976107139

Suivez DELTA 1 DEB en temps réel avec AllMySat

Download on the App Store